Time,TemperatureF,DewpointF,PressureIn,WindDirection,WindDirectionDegrees,WindSpeedMPH,WindSpeedGustMPH,Humidity,HourlyPrecipIn,Conditions,Clouds,dailyrainin,SoftwareType,DateUTC
2015-07-01 00:02:00,74.0,55.0,30.12,ESE,123,0.0,0.0,51,-99.99,,,-99.99,,2015-07-01 07:02:00,
2015-07-01 00:12:00,74.0,55.0,30.12,ESE,123,0.0,0.0,51,-99.99,,,-99.99,,2015-07-01 07:12:00,
2015-07-01 00:22:00,74.0,56.0,30.12,ESE,123,0.0,0.0,53,-99.99,,,-99.99,,2015-07-01 07:22:00,
2015-07-01 00:33:00,73.0,54.0,30.11,ESE,123,0.0,1.0,52,-99.99,,,-99.99,,2015-07-01 07:33:00,
2015-07-01 00:43:00,73.0,54.0,30.11,ESE,123,0.0,1.0,52,-99.99,,,-99.99,,2015-07-01 07:43:00,
2015-07-01 00:53:00,73.0,55.0,30.12,ESE,123,0.0,0.0,54,-99.99,,,-99.99,,2015-07-01 07:53:00,
2015-07-01 01:02:00,73.0,57.0,30.11,ESE,123,0.0,1.0,57,-99.99,,,-99.99,,2015-07-01 08:02:00,
2015-07-01 01:12:00,73.0,57.0,30.11,ESE,123,0.0,1.0,57,-99.99,,,-99.99,,2015-07-01 08:12:00,
2015-07-01 01:23:00,73.0,57.0,30.11,ESE,123,0.0,1.0,58,-99.99,,,-99.99,,2015-07-01 08:23:00,
2015-07-01 01:33:00,72.0,57.0,30.11,ESE,123,0.0,1.0,59,-99.99,,,-99.99,,2015-07-01 08:33:00,
2015-07-01 01:43:00,72.0,57.0,30.11,ESE,123,0.0,1.0,59,-99.99,,,-99.99,,2015-07-01 08:43:00,
2015-07-01 01:53:00,71.0,56.0,30.11,ESE,123,0.0,0.0,59,-99.99,,,-99.99,,2015-07-01 08:53:00,
2015-07-01 02:02:00,71.0,54.0,30.11,ESE,123,0.0,0.0,55,-99.99,,,-99.99,,2015-07-01 09:02:00,
2015-07-01 02:12:00,71.0,54.0,30.11,ESE,123,0.0,0.0,55,-99.99,,,-99.99,,2015-07-01 09:12:00,
2015-07-01 02:23:00,71.0,57.0,30.10,ESE,123,0.0,1.0,61,-99.99,,,-99.99,,2015-07-01 09:23:00,
2015-07-01 02:33:00,70.0,55.0,30.09,ESE,123,0.0,0.0,59,-99.99,,,-99.99,,2015-07-01 09:33:00,
2015-07-01 02:43:00,70.0,55.0,30.09,ESE,123,0.0,0.0,59,-99.99,,,-99.99,,2015-07-01 09:43:00,
2015-07-01 02:53:00,70.0,54.0,30.11,ESE,123,0.0,0.0,56,-99.99,,,-99.99,,2015-07-01 09:53:00,
2015-07-01 03:03:00,70.0,55.0,30.11,ESE,123,0.0,0.0,58,-99.99,,,-99.99,,2015-07-01 10:03:00,
2015-07-01 03:12:00,70.0,55.0,30.11,ESE,123,0.0,0.0,58,-99.99,,,-99.99,,2015-07-01 10:12:00,
2015-07-01 03:23:00,69.0,56.0,30.11,ESE,123,0.0,0.0,64,-99.99,,,-99.99,,2015-07-01 10:23:00,
2015-07-01 03:33:00,69.0,56.0,30.09,ESE,123,0.0,0.0,64,-99.99,,,-99.99,,2015-07-01 10:33:00,
2015-07-01 03:43:00,69.0,56.0,30.09,ESE,123,0.0,0.0,64,-99.99,,,-99.99,,2015-07-01 10:43:00,
2015-07-01 03:53:00,69.0,58.0,30.09,ESE,123,0.0,0.0,67,-99.99,,,-99.99,,2015-07-01 10:53:00,
2015-07-01 04:03:00,67.0,58.0,30.08,ESE,123,0.0,2.0,72,-99.99,,,-99.99,,2015-07-01 11:03:00,
2015-07-01 04:13:00,67.0,58.0,30.08,ESE,123,0.0,2.0,72,-99.99,,,-99.99,,2015-07-01 11:13:00,
2015-07-01 04:23:00,67.0,57.0,30.11,ESE,123,0.0,3.0,71,-99.99,,,-99.99,,2015-07-01 11:23:00,
2015-07-01 04:33:00,68.0,56.0,30.10,ESE,123,0.0,1.0,66,-99.99,,,-99.99,,2015-07-01 11:33:00,
2015-07-01 04:43:00,68.0,56.0,30.10,ESE,123,0.0,1.0,66,-99.99,,,-99.99,,2015-07-01 11:43:00,
2015-07-01 04:53:00,68.0,55.0,30.10,ESE,123,0.0,2.0,64,-99.99,,,-99.99,,2015-07-01 11:53:00,
2015-07-01 05:03:00,68.0,54.0,30.09,ESE,123,0.0,1.0,60,-99.99,,,-99.99,,2015-07-01 12:03:00,
2015-07-01 05:12:00,68.0,54.0,30.09,ESE,123,0.0,1.0,60,-99.99,,,-99.99,,2015-07-01 12:12:00,
2015-07-01 05:23:00,68.0,56.0,30.09,ESE,123,0.0,1.0,65,-99.99,,,-99.99,,2015-07-01 12:23:00,
2015-07-01 05:33:00,68.0,55.0,30.10,ESE,123,0.0,0.0,63,-99.99,,,-99.99,,2015-07-01 12:33:00,
2015-07-01 05:43:00,68.0,55.0,30.10,ESE,123,0.0,0.0,63,-99.99,,,-99.99,,2015-07-01 12:43:00,
2015-07-01 05:54:00,67.0,54.0,30.11,ESE,123,0.0,0.0,62,-99.99,,,-99.99,,2015-07-01 12:54:00,
2015-07-01 06:02:00,67.0,56.0,30.11,ESE,123,0.0,0.0,68,-99.99,,,-99.99,,2015-07-01 13:02:00,